Terminal Aerodrome Forecast
Issued by NWS

Home | Current Version | Previous Version | Text Only | Print | Product List | Glossary On
Versions: 1 2 3 4 5 6 7 8 9 10 11 12 13 14 15 16 17 18
000
FTUS43 KDVN 150500
TAFBRL
TAF
KBRL 150520Z 1506/1606 15003KT P6SM BKN050
      TEMPO 1510/1513 6SM -SHRA BR BKN040
     FM151300 20006KT 5SM -RA BR OVC025
     FM151800 29007KT P6SM OVC025
      TEMPO 1518/1520 6SM -SHRA
     FM152300 30010KT P6SM BKN040
     FM160200 33003KT P6SM SKC=

USA.gov is the U.S. government's official web portal to all federal, state and local government web resources and services.